Hatteras, NC

3:06 PM EST on November 18, 2017 (GMT -0500)
Mitchell

Weather History for KHSE - August, 2014

Change the Weather History Date:

Monday, August 18, 2014

  Actual Average Record
Temperature  
Mean Temperature 82 °F 78 °F  
Max Temperature 91 °F 84 °F 93 °F (1988)
Min Temperature 72 °F 73 °F 56 °F (1979)
Degree Days  
Heating Degree Days 0 0  
Month to date heating degree days 0 0  
Since 1 June heating degree days 0 3  
Since 1 July heating degree days 0 0  
Cooling Degree Days 17 13  
Month to date cooling degree days 249 251  
Year to date cooling degree days 1196 1139  
Since 1 June cooling degree days 960 996  
Growing Degree Days 31 (Base 50)    
Moisture  
Dew Point 74 °F    
Average Humidity 81    
Maximum Humidity 97    
Minimum Humidity 64    
Precipitation  
Precipitation 0.66 in 0.22 in 5.30 in (1991)
Month to date precipitation 9.82 3.79  
Year to date precipitation 40.82 34.05  
Snow  
Snow 0.00 in - - ()
Month to date snowfall 0.0  
Since 1 July snowfall 0.0  
Snow Depth 0.00 in    
Sea Level Pressure  
Sea Level Pressure 29.88 in    
Wind  
Wind Speed 6 mph (SW)    
Max Wind Speed 28 mph    
Max Gust Speed 41 mph    
Visibility 6 miles    
Events Rain    
T = Trace of Precipitation, MM = Missing Value Source: NWS Daily Summary

Daily Weather History Graph

Daily Weather History Graph

Search for Another Location

Airport or City:

Trip Planner

Search our weather history database for the weather conditions in past years. The results will help you decide how hot, cold, wet, or windy it might be!

Date:

Astronomy

Aug. 18, 2014 Rise Set
Actual Time 6:24 AM EDT 7:47 PM EDT
Civil Twilight 5:57 AM EDT 8:14 PM EDT
Nautical Twilight 5:25 AM EDT 8:46 PM EDT
Astronomical Twilight 4:52 AM EDT 9:19 PM EDT
Moon 12:32 AM EDT 2:45 PM EDT
Length of Visible Light 14h 16m
Length of Day
13h 23m
Last Quarter, 38% of the Moon is Illuminated
Aug 18
Last Quarter
Aug 25
New
Sep 2
First Quarter
Sep 8
Full
Sep 15
Last Quarter

Hourly Weather History & Observations

Time (EDT) Temp. Heat Index Dew Point Humidity Pressure Visibility Wind Dir Wind Speed Gust Speed Precip Events Conditions
12:51 AM 79.0 °F - 77.0 °F 94% 29.94 in 7.0 mi WSW 3.5 mph - N/A   Clear
2:51 AM 80.1 °F 86.4 °F 78.1 °F 94% 29.91 in 8.0 mi NW 4.6 mph - N/A   Partly Cloudy
3:51 AM 77.0 °F - 73.0 °F 88% 29.91 in 10.0 mi Calm Calm - N/A   Clear
4:51 AM 75.0 °F - 72.0 °F 90% 29.91 in 10.0 mi NNE 3.5 mph - N/A   Clear
5:51 AM 73.9 °F - 72.0 °F 93% 29.92 in 10.0 mi Calm Calm - N/A   Clear
6:51 AM 73.9 °F - 72.0 °F 93% 29.93 in 6.0 mi Calm Calm - N/A   Partly Cloudy
7:51 AM 80.1 °F 85.1 °F 75.0 °F 85% 29.94 in 7.0 mi Calm Calm - N/A   Clear
8:51 AM 81.0 °F 85.2 °F 72.0 °F 74% 29.93 in 10.0 mi Calm Calm - N/A   Clear
9:51 AM 81.0 °F 84.9 °F 71.1 °F 72% 29.94 in 10.0 mi Calm Calm - N/A   Clear
11:51 AM 86.0 °F 95.1 °F 75.0 °F 70% 29.93 in 10.0 mi SSE 6.9 mph - N/A   Clear
1:51 PM 89.1 °F 99.1 °F 75.0 °F 63% 29.90 in 9.0 mi SSE 8.1 mph - N/A   Clear
2:51 PM 90.0 °F 101.3 °F 75.9 °F 63% 29.87 in 8.0 mi South 11.5 mph - N/A   Clear
3:51 PM 82.9 °F 90.8 °F 75.9 °F 79% 29.86 in 7.0 mi SSW 8.1 mph - N/A   Overcast
4:23 PM 82.0 °F 91.0 °F 78.1 °F 88% 29.85 in 2.0 mi SW 5.8 mph - 0.03 in Rain Light Rain
4:36 PM 82.0 °F 91.6 °F 79.0 °F 90% 29.84 in 1.2 mi Calm Calm - 0.05 in Rain Rain
4:56 PM 79.0 °F - 78.1 °F 97% 29.85 in 2.5 mi Variable 3.5 mph - 0.01 in Rain Light Rain
5:05 PM 78.1 °F - 75.9 °F 93% 29.87 in 5.0 mi NW 12.7 mph 18.4 mph 0.01 in Rain Light Rain
5:15 PM 73.0 °F - 70.0 °F 90% 29.88 in 1.5 mi NW 23.0 mph 41.4 mph 0.03 in Rain Heavy Rain
5:21 PM 72.0 °F - 71.1 °F 97% 29.87 in 0.8 mi NW 20.7 mph 35.7 mph 0.21 in Rain Heavy Rain
5:25 PM 72.0 °F - 71.1 °F 97% 29.86 in 1.0 mi NW 15.0 mph 33.4 mph 0.24 in Rain Heavy Rain
5:33 PM 73.0 °F - 71.1 °F 93% 29.86 in 2.0 mi NW 12.7 mph 23.0 mph 0.30 in Rain Light Rain
5:42 PM 73.0 °F - 70.0 °F 90% 29.87 in 3.0 mi Variable 5.8 mph - 0.32 in Rain Rain
5:51 PM 73.0 °F - 70.0 °F 90% 29.89 in 4.0 mi NE 6.9 mph - 0.34 in Rain Light Rain
6:35 PM 73.9 °F - 73.0 °F 97% 29.86 in 2.0 mi Calm Calm - 0.09 in Rain Rain
6:51 PM 75.0 °F - 73.9 °F 96% 29.86 in 2.5 mi Calm Calm - 0.13 in Rain Light Rain
7:51 PM 75.9 °F - 73.0 °F 91% 29.84 in 10.0 mi SW 10.4 mph - 0.05 in Rain Light Rain
8:51 PM 77.0 °F - 73.9 °F 90% 29.84 in 10.0 mi South 11.5 mph - 0.01 in Rain Light Rain
9:51 PM 78.1 °F - 75.0 °F 90% 29.84 in 10.0 mi SSE 10.4 mph - 0.00 in   Clear
10:20 PM 78.1 °F - 75.9 °F 93% 29.84 in 9.0 mi SE 13.8 mph - N/A   Mostly Cloudy
10:51 PM 79.0 °F - 77.0 °F 94% 29.83 in 9.0 mi SSE 8.1 mph - 0.00 in   Scattered Clouds